• In Hungary
  • List of Countries
  • For 7 days
  • Water Temperature
  • Satellite Maps
  • Weather Map
  • News
  • Weather Widgets
  • user-avatar
    Login

    Hourly Weather Barnukovka

    Today, 24 May, Thursday

    Time Temperature Precipitation Wind Pressure Humidity
    00:00 +19°C° 0 mm 2 mps 756 mmHg 61%
    01:00 +18°C° 0 mm 2 mps 755 mmHg 62%
    02:00 +19°C° 0 mm 1 mps 755 mmHg 62%
    03:00 +17°C° 0 mm 0 mps 755 mmHg 62%
    04:00 +19°C° 0.1 mm 1 mps 755 mmHg 64%
    05:00 +19°C° 0.1 mm 1 mps 755 mmHg 65%
    06:00 +20°C° 0.1 mm 1 mps 754 mmHg 66%
    07:00 +19°C° 0 mm 2 mps 754 mmHg 65%
    08:00 +20°C° 0 mm 3 mps 754 mmHg 63%
    09:00 +21°C° 0 mm 3 mps 753 mmHg 62%
    10:00 +23°C° 0 mm 4 mps 753 mmHg 57%
    11:00 +26°C° 0 mm 4 mps 753 mmHg 52%
    12:00 +28°C° 0 mm 5 mps 752 mmHg 47%
    13:00 +29°C° 0 mm 5 mps 752 mmHg 45%
    14:00 +30°C° 0 mm 4 mps 751 mmHg 43%
    15:00 +30°C° 0 mm 4 mps 751 mmHg 41%
    16:00 +30°C° 0 mm 4 mps 750 mmHg 45%
    17:00 +29°C° 0 mm 3 mps 750 mmHg 50%
    18:00 +28°C° 0 mm 2 mps 749 mmHg 54%
    19:00 +26°C° 0 mm 3 mps 749 mmHg 57%
    20:00 +25°C° 0 mm 3 mps 749 mmHg 59%
    21:00 +22°C° 0 mm 3 mps 749 mmHg 62%
    22:00 +21°C° 0 mm 4 mps 748 mmHg 64%
    23:00 +21°C° 0 mm 4 mps 748 mmHg 66%

    Tomorrow, 25 May, Friday

    Time Temperature Precipitation Wind Pressure Humidity
    00:00 +20°C° 0 mm 4 mps 748 mmHg 68%
    01:00 +20°C° 0 mm 5 mps 748 mmHg 71%
    02:00 +19°C° 0 mm 5 mps 748 mmHg 74%
    03:00 +19°C° 0 mm 6 mps 748 mmHg 76%
    04:00 +18°C° 0 mm 7 mps 748 mmHg 77%
    05:00 +18°C° 0 mm 7 mps 748 mmHg 78%
    06:00 +18°C° 0 mm 8 mps 748 mmHg 79%
    07:00 +18°C° 0 mm 8 mps 749 mmHg 76%
    08:00 +20°C° 0 mm 8 mps 749 mmHg 74%
    09:00 +21°C° 0 mm 8 mps 749 mmHg 71%
    10:00 +21°C° 0 mm 7 mps 749 mmHg 71%
    11:00 +21°C° 0 mm 7 mps 750 mmHg 72%
    12:00 +21°C° 0 mm 7 mps 750 mmHg 73%
    13:00 +20°C° 0 mm 7 mps 750 mmHg 71%
    14:00 +20°C° 0 mm 8 mps 751 mmHg 69%
    15:00 +20°C° 0 mm 8 mps 751 mmHg 68%
    16:00 +18°C° 0 mm 8 mps 752 mmHg 65%
    17:00 +17°C° 0 mm 8 mps 752 mmHg 62%
    18:00 +16°C° 0 mm 8 mps 753 mmHg 60%
    19:00 +15°C° 0 mm 8 mps 754 mmHg 58%
    20:00 +12°C° 0 mm 8 mps 754 mmHg 56%
    21:00 +11°C° 0 mm 8 mps 755 mmHg 55%
    22:00 +10°C° 0 mm 8 mps 756 mmHg 53%
    23:00 +9°C° 0 mm 7 mps 756 mmHg 52%

    Day after tomorrow, 26 May, Saturday

    Time Temperature Precipitation Wind Pressure Humidity
    00:00 +8°C° 0 mm 7 mps 757 mmHg 51%
    01:00 +8°C° 0 mm 7 mps 757 mmHg 52%
    02:00 +7°C° 0 mm 6 mps 758 mmHg 52%
    03:00 +5°C° 0 mm 6 mps 758 mmHg 53%
    04:00 +6°C° 0 mm 7 mps 759 mmHg 54%
    05:00 +6°C° 0 mm 7 mps 759 mmHg 55%
    06:00 +6°C° 0 mm 7 mps 760 mmHg 57%
    07:00 +8°C° 0 mm 7 mps 760 mmHg 53%
    08:00 +10°C° 0 mm 8 mps 761 mmHg 50%
    09:00 +11°C° 0 mm 8 mps 761 mmHg 47%
    10:00 +12°C° 0 mm 8 mps 761 mmHg 45%
    11:00 +12°C° 0 mm 7 mps 762 mmHg 43%
    12:00 +14°C° 0 mm 7 mps 762 mmHg 42%
    13:00 +15°C° 0 mm 7 mps 762 mmHg 41%
    14:00 +15°C° 0 mm 7 mps 762 mmHg 41%
    15:00 +15°C° 0 mm 7 mps 762 mmHg 41%
    16:00 +15°C° 0 mm 6 mps 762 mmHg 45%
    17:00 +14°C° 0 mm 5 mps 762 mmHg 48%
    18:00 +14°C° 0 mm 4 mps 762 mmHg 52%
    19:00 +12°C° 0 mm 3 mps 763 mmHg 56%
    20:00 +11°C° 0 mm 3 mps 763 mmHg 59%
    21:00 +9°C° 0 mm 2 mps 763 mmHg 62%
    22:00 +8°C° 0 mm 2 mps 764 mmHg 63%
    23:00 +8°C° 0 mm 2 mps 764 mmHg 63%

    27 May, Sunday

    Time Temperature Precipitation Wind Pressure Humidity
    00:00 +8°C° 0 mm 1 mps 764 mmHg 64%
    01:00 +8°C° 0 mm 1 mps 764 mmHg 64%
    02:00 +8°C° 0 mm 1 mps 765 mmHg 64%
    03:00 +8°C° 0 mm 1 mps 765 mmHg 64%
    04:00 +9°C° 0 mm 1 mps 765 mmHg 63%
    05:00 +10°C° 0 mm 1 mps 765 mmHg 62%
    06:00 +11°C° 0 mm 1 mps 765 mmHg 61%
    07:00 +13°C° 0 mm 1 mps 765 mmHg 56%
    08:00 +15°C° 0 mm 2 mps 765 mmHg 51%
    09:00 +16°C° 0 mm 2 mps 764 mmHg 46%
    10:00 +17°C° 0 mm 2 mps 764 mmHg 44%
    11:00 +18°C° 0 mm 2 mps 764 mmHg 43%
    12:00 +19°C° 0 mm 2 mps 763 mmHg 41%
    13:00 +20°C° 0 mm 3 mps 763 mmHg 41%
    14:00 +20°C° 0 mm 3 mps 762 mmHg 41%
    15:00 +20°C° 0 mm 3 mps 762 mmHg 41%
    16:00 +20°C° 0 mm 3 mps 761 mmHg 46%
    17:00 +19°C° 0 mm 3 mps 761 mmHg 51%
    18:00 +19°C° 0 mm 3 mps 760 mmHg 55%
    19:00 +17°C° 0 mm 3 mps 760 mmHg 58%
    20:00 +14°C° 0 mm 3 mps 760 mmHg 61%
    21:00 +13°C° 0 mm 3 mps 760 mmHg 64%
    22:00 +12°C° 0 mm 3 mps 759 mmHg 66%
    23:00 +11°C° 0 mm 3 mps 759 mmHg 67%

    28 May, Monday

    Time Temperature Precipitation Wind Pressure Humidity
    00:00 +11°C° 0 mm 3 mps 759 mmHg 69%
    01:00 +10°C° 0 mm 3 mps 759 mmHg 71%
    02:00 +10°C° 0 mm 3 mps 758 mmHg 72%
    03:00 +10°C° 0 mm 3 mps 758 mmHg 74%
    04:00 +11°C° 0 mm 4 mps 758 mmHg 73%
    05:00 +12°C° 0 mm 4 mps 758 mmHg 72%
    06:00 +13°C° 0 mm 5 mps 758 mmHg 72%
    07:00 +14°C° 0 mm 5 mps 757 mmHg 70%
    08:00 +15°C° 0 mm 5 mps 757 mmHg 68%
    09:00 +17°C° 0 mm 5 mps 757 mmHg 65%
    10:00 +17°C° 0.1 mm 5 mps 757 mmHg 63%
    11:00 +19°C° 0.1 mm 5 mps 757 mmHg 61%
    12:00 +19°C° 0.1 mm 5 mps 757 mmHg 59%
    13:00 +20°C° 0 mm 5 mps 757 mmHg 55%
    14:00 +20°C° 0 mm 5 mps 757 mmHg 51%
    15:00 +20°C° 0 mm 5 mps 757 mmHg 47%
    16:00 +19°C° 0 mm 5 mps 757 mmHg 51%
    17:00 +18°C° 0 mm 4 mps 757 mmHg 55%
    18:00 +17°C° 0 mm 4 mps 758 mmHg 59%
    19:00 +14°C° 0 mm 4 mps 758 mmHg 61%
    20:00 +13°C° 0 mm 4 mps 759 mmHg 63%
    21:00 +11°C° 0 mm 3 mps 759 mmHg 65%
    22:00 +10°C° 0 mm 3 mps 760 mmHg 66%
    23:00 +9°C° 0 mm 3 mps 760 mmHg 68%

    29 May, Tuesday

    Time Temperature Precipitation Wind Pressure Humidity
    00:00 +8°C° 0 mm 2 mps 760 mmHg 69%
    01:00 +7°C° 0 mm 2 mps 761 mmHg 69%
    02:00 +7°C° 0 mm 2 mps 761 mmHg 68%
    03:00 +7°C° 0 mm 2 mps 761 mmHg 67%
    04:00 +8°C° 0 mm 2 mps 761 mmHg 66%
    05:00 +9°C° 0 mm 3 mps 761 mmHg 64%
    06:00 +10°C° 0 mm 3 mps 761 mmHg 62%
    07:00 +12°C° 0 mm 4 mps 761 mmHg 57%
    08:00 +13°C° 0 mm 5 mps 761 mmHg 53%
    09:00 +15°C° 0 mm 6 mps 760 mmHg 48%
    10:00 +16°C° 0 mm 6 mps 760 mmHg 48%
    11:00 +17°C° 0 mm 7 mps 760 mmHg 48%
    12:00 +18°C° 0 mm 7 mps 759 mmHg 47%
    13:00 +20°C° 0 mm 7 mps 759 mmHg 48%
    14:00 +20°C° 0 mm 8 mps 758 mmHg 49%
    15:00 +21°C° 0 mm 8 mps 758 mmHg 50%
    16:00 +21°C° 0 mm 7 mps 757 mmHg 54%
    17:00 +20°C° 0 mm 6 mps 757 mmHg 58%
    18:00 +20°C° 0 mm 5 mps 757 mmHg 63%
    19:00 +18°C° 0 mm 4 mps 756 mmHg 68%
    20:00 +17°C° 0 mm 4 mps 756 mmHg 72%
    21:00 +14°C° 0 mm 3 mps 756 mmHg 77%
    22:00 +14°C° 0 mm 4 mps 756 mmHg 77%
    23:00 +14°C° 0 mm 4 mps 755 mmHg 77%
    Show more